Lapse_Rate
7.2 7.6 7.8 8.2 8.8 9.6 9.6 9.6 9.6 9.3 9.0 8.7 9.0 8.5 8.0 8.1 7.7 7.5 7.3 7.4 6.4 6.4 6.9 7.1 7.2 7.2 7.1 7.0 6.9 6.8 6.6 6.5 6.3 6.2 6.1 6.1 6.1 6.1 6.1 6.0 6.1 6.4 6.4 6.4
7.2 7.5 8.1 8.3 8.6 8.6 9.0 9.6 9.7 9.0 8.6 8.8 8.6 8.6 8.1 7.7 7.8 7.6 7.4 7.5 7.3 7.1 7.2 7.1 7.0 6.9 6.7 6.7 6.6 6.5 6.4 6.3 6.2 6.1 6.0 6.0 5.9 6.0 6.2 6.2 6.3 6.4 6.6 6.8
7.8 8.1 8.1 8.1 8.4 8.9 9.2 9.3 9.4 9.1 8.4 8.7 8.4 8.5 7.9 7.8 7.7 8.1 7.6 7.2 7.2 7.1 7.1 7.1 7.0 6.9 6.6 6.6 6.5 6.3 6.2 6.0 6.0 6.2 6.1 6.0 6.0 6.1 6.2 6.3 6.4 6.5 6.7 6.8
8.3 8.3 8.4 8.7 9.1 9.3 9.7 9.3 9.4 9.1 8.4 9.3 8.6 9.6 8.3 8.1 7.8 8.5 8.3 8.0 7.4 7.1 7.0 7.0 6.9 6.8 6.6 6.4 6.3 6.2 6.2 6.2 6.3 6.2 6.2 6.1 6.0 6.1 6.1 6.2 6.1 6.1 6.3 6.4
8.0 8.5 8.9 9.2 9.6 9.4 9.2 9.3 8.9 9.0 8.8 9.2 8.5 9.3 9.5 8.3 7.9 7.7 8.0 7.7 7.7 7.4 7.1 6.9 6.6 6.7 6.5 6.4 6.2 6.1 6.2 6.1 6.2 6.2 6.1 6.1 6.0 6.1 6.3 6.1 6.0 6.0 6.2 6.2
8.8 9.0 9.3 9.6 9.1 9.1 9.3 9.0 8.5 8.9 9.5 9.6 9.6 9.3 9.6 9.4 8.1 7.9 7.5 7.4 7.8 7.6 7.3 7.2 6.9 6.8 6.5 6.3 6.2 6.0 6.0 6.1 6.1 6.1 6.1 6.0 5.9 5.9 6.0 6.2 6.2 6.2 6.1 6.1
8.9 9.2 9.2 9.3 9.2 9.2 9.1 9.3 9.7 9.8 9.9 9.9 9.0 9.2 9.3 9.5 8.9 8.4 8.1 7.6 8.0 7.9 7.6 7.4 7.3 6.9 6.5 6.3 6.3 6.0 5.9 6.0 6.0 6.0 6.1 6.1 5.8 5.8 5.9 5.9 5.9 5.9 5.8 6.0
9.5 9.1 9.2 9.3 9.6 9.4 9.2 9.6 9.8 9.5 9.9 9.9 8.4 9.1 9.3 8.9 8.9 8.7 8.4 7.9 7.3 7.9 7.8 7.6 7.4 7.1 6.5 6.3 6.2 6.1 6.0 6.0 6.0 5.9 6.2 6.1 5.8 5.7 5.6 5.7 5.7 5.7 5.6 5.5
9.6 9.7 9.5 9.4 9.4 9.6 9.6 9.5 9.6 9.7 9.6 9.8 9.7 9.2 8.7 8.5 8.7 8.6 8.6 8.2 7.2 7.7 7.7 7.6 7.3 7.1 6.6 6.3 6.2 6.2 6.1 6.0 5.9 6.2 5.9 5.9 6.0 5.9 5.7 5.7 5.7 5.7 5.6 5.4
9.5 9.7 9.3 9.2 9.2 9.3 9.5 9.6 9.6 9.6 9.7 9.6 9.7 9.6 9.6 8.8 8.6 8.4 8.4 8.3 7.2 7.6 7.4 7.4 7.4 7.2 6.8 6.5 6.3 6.3 6.1 5.9 6.1 6.1 5.7 5.7 5.9 6.0 5.9 5.8 5.6 5.6 5.5 5.4
9.5 9.4 9.3 8.9 9.2 9.6 9.3 9.5 9.6 9.6 9.5 9.9 9.9 9.8 9.3 9.0 8.6 8.4 8.2 8.1 7.7 7.7 7.6 7.4 7.3 7.1 6.7 6.6 6.4 6.3 6.1 6.0 6.2 6.0 5.8 5.8 5.9 5.9 5.8 5.6 5.6 5.5 5.4 5.3
8.7 8.9 9.5 9.3 9.3 9.3 9.6 9.6 9.6 9.6 9.4 9.6 9.4 9.7 9.1 9.0 8.7 8.4 8.1 8.2 7.9 7.7 7.6 7.4 7.3 7.1 6.9 6.6 6.4 6.4 6.2 6.2 6.3 6.1 5.9 5.7 5.7 5.7 5.5 5.4 5.3 5.4 5.4 5.3
8.8 8.7 9.6 9.7 9.1 9.0 9.3 9.5 9.6 9.5 9.6 9.6 9.8 9.7 9.3 8.7 8.5 8.3 8.1 8.2 8.0 7.8 7.7 7.6 7.4 7.1 6.9 6.7 6.5 6.3 6.3 6.4 6.2 6.1 5.9 5.9 5.7 5.4 5.3 5.2 5.2 5.2 5.3 5.5
9.1 9.4 9.2 9.7 9.5 9.6 9.3 9.4 9.3 9.6 9.6 9.6 9.6 9.5 9.6 8.8 8.3 8.1 8.1 8.0 8.1 8.1 8.0 7.9 7.6 7.5 6.9 6.7 6.5 6.5 6.5 6.4 6.2 6.1 6.1 5.9 5.7 5.6 5.5 5.4 5.2 5.1 5.2 5.4
8.9 9.0 9.3 9.6 9.7 9.7 9.6 9.6 9.4 9.6 9.6 9.6 9.6 9.5 9.1 8.4 8.0 7.9 8.0 8.0 8.0 8.1 8.0 8.0 8.0 7.7 7.1 6.8 6.7 6.7 6.5 6.2 6.4 6.3 6.3 5.8 5.7 5.8 5.6 5.5 5.4 5.3 5.2 5.3
8.8 9.1 9.1 9.6 9.3 9.4 9.6 9.6 9.5 9.3 9.5 9.2 9.2 9.1 8.8 7.9 7.7 7.7 7.7 7.8 7.9 8.0 8.1 8.2 8.0 7.5 7.3 7.0 6.9 6.8 6.4 6.3 6.4 6.4 6.1 5.7 5.6 5.6 5.6 5.5 5.4 5.4 5.3 5.6
8.6 8.9 8.8 9.6 9.0 9.2 9.4 9.4 9.2 9.3 8.9 9.0 9.1 9.1 8.4 8.0 7.6 7.4 7.4 7.4 7.7 7.9 8.1 8.2 7.9 7.7 7.2 7.1 7.0 6.7 6.5 6.5 6.5 6.3 5.8 5.4 5.4 5.5 5.4 5.3 5.5 5.6 5.7 6.2
8.6 8.7 9.2 9.5 8.8 9.3 9.5 9.3 9.2 9.0 9.0 8.8 8.7 8.5 8.2 7.9 7.7 7.5 7.5 7.5 7.6 7.7 8.0 8.0 7.5 7.5 7.5 7.1 6.9 6.5 6.8 6.8 6.6 6.2 5.8 5.3 5.4 5.5 5.5 5.4 5.4 5.6 5.9 6.0
8.8 8.7 9.3 9.3 9.2 9.5 8.8 9.1 8.9 8.9 8.9 8.6 8.4 8.2 8.0 7.7 7.7 7.5 7.6 7.6 7.7 7.8 7.7 7.6 7.7 7.6 7.3 7.2 6.8 6.8 7.1 6.8 6.5 6.0 5.6 5.2 5.3 5.5 5.5 5.4 5.4 5.6 6.0 5.9
8.7 8.7 8.9 9.3 9.3 9.8 9.6 9.4 8.7 8.4 8.7 8.6 8.1 7.9 7.9 7.7 8.0 7.9 7.6 7.5 7.5 7.6 7.7 7.6 7.6 7.6 7.5 7.2 7.0 7.2 7.2 6.6 6.1 5.6 5.6 5.6 5.4 5.4 5.4 5.4 5.5 5.6 5.7 5.9
8.4 8.6 8.7 9.1 9.3 9.5 9.0 9.0 8.5 8.5 8.9 8.2 7.9 7.8 7.8 7.7 7.9 7.8 7.6 7.5 7.4 7.4 7.5 7.5 7.5 7.6 7.4 7.1 7.1 6.9 6.5 6.4 6.0 6.0 5.8 5.6 5.6 5.5 5.5 5.7 5.7 5.7 5.9 5.8
8.6 8.8 9.3 9.0 9.3 9.4 8.7 8.6 8.3 8.3 8.0 7.9 7.7 7.7 7.7 7.7 7.8 7.8 7.6 7.4 7.4 7.5 7.4 7.5 7.3 7.2 6.9 6.8 6.7 6.5 6.4 6.4 6.2 5.9 5.9 5.6 5.4 5.4 5.2 5.4 6.0 5.9 5.8 5.9
8.4 8.5 9.0 9.1 9.0 8.8 8.3 8.1 7.9 7.7 7.6 7.7 7.7 7.8 7.8 7.7 7.8 7.8 7.8 7.7 7.5 7.5 7.5 7.3 7.1 7.1 7.0 6.9 6.8 6.6 6.6 6.5 6.3 6.1 5.9 5.7 5.4 5.1 5.5 5.9 6.1 5.9 5.7 6.0
7.8 8.0 8.3 8.1 8.2 8.0 8.0 7.8 7.8 7.6 7.6 7.6 7.6 7.7 7.9 7.8 7.8 7.8 7.8 7.7 7.7 7.6 7.5 7.3 7.2 7.2 7.3 7.2 6.9 6.8 6.7 6.7 6.5 6.2 6.0 5.9 5.5 5.6 5.8 5.9 5.8 5.6 5.7 5.9
7.9 7.4 7.5 7.5 7.9 7.7 7.6 7.5 7.5 7.4 7.5 7.6 7.8 7.9 7.9 7.9 7.9 7.8 7.7 7.9 7.9 7.5 7.3 7.1 7.2 7.5 7.5 7.3 7.0 6.8 6.6 6.5 6.3 6.1 6.0 5.7 5.7 5.9 6.1 5.9 6.0 6.0 6.2 5.8
7.3 7.6 7.4 7.9 7.3 7.1 7.3 7.2 7.3 7.5 7.6 7.7 7.7 7.8 7.8 7.9 7.9 7.8 7.9 8.1 7.9 7.8 7.6 7.5 7.6 7.7 7.5 7.1 6.7 6.5 6.3 6.1 6.0 6.0 5.8 5.9 6.1 6.1 5.9 5.7 6.1 6.0 5.9 5.9
Wind_Speed
12 12 15 17 17 11 13 16 12 10 5 10 6 12 14 14 12 12 13 12 11 11 9 9 9 9 8 7 6 6 5 4 4 4 4 5 6 5 6 9 11 11 8 9
10 17 17 12 7 11 12 12 11 6 6 11 8 11 12 12 14 12 12 13 12 12 11 10 10 9 8 6 6 6 5 6 5 4 2 3 3 4 5 3 4 4 6 5
16 19 12 12 13 15 14 15 12 13 9 11 8 10 12 13 11 11 11 11 11 12 13 12 11 10 9 7 6 6 5 5 3 1 3 3 4 5 5 3 5 4 7 7
13 11 14 16 16 14 14 10 13 15 14 12 16 10 18 17 16 16 16 14 13 13 12 13 13 11 10 8 7 7 7 6 5 3 1 2 5 5 6 5 5 7 8 9
12 15 14 14 14 10 6 8 9 12 17 7 13 9 3 16 18 20 18 18 16 15 15 14 14 12 11 10 10 10 8 6 4 2 2 4 3 3 4 5 6 6 6 7
12 6 11 8 6 6 13 13 7 8 7 10 12 12 12 10 18 19 19 19 18 16 16 15 14 14 12 10 10 9 8 6 4 2 1 2 1 3 4 4 5 4 4 4
10 14 9 17 14 11 13 15 8 9 8 10 5 7 13 2 5 13 19 21 20 18 17 17 17 15 14 12 11 9 8 6 5 3 1 1 2 3 5 5 5 6 5 4
16 13 14 14 12 12 17 15 6 7 9 6 3 7 6 2 4 11 11 18 20 19 18 18 18 16 15 13 11 9 9 7 5 3 2 3 3 5 5 3 5 5 5 5
14 12 12 14 8 10 11 10 5 1 3 8 7 6 9 8 8 9 11 13 21 19 19 20 19 16 15 13 12 10 9 7 5 3 3 4 4 4 5 5 5 5 4 4
9 11 14 8 9 4 8 11 9 9 6 9 6 6 3 5 7 8 13 15 18 19 20 19 18 16 15 14 12 11 9 8 6 4 4 4 4 4 4 5 6 6 6 6
13 12 10 10 12 15 8 11 8 5 5 7 6 3 6 2 2 4 9 14 17 21 20 19 18 16 15 14 13 11 10 8 7 5 5 4 4 4 4 5 6 6 7 7
18 11 12 16 5 6 15 18 16 10 11 6 7 8 4 4 3 3 4 11 16 20 20 18 18 18 16 15 13 11 10 9 7 5 5 5 5 5 5 6 8 8 8 8
13 11 14 12 9 5 11 11 13 16 10 7 8 3 6 3 4 4 7 10 13 17 19 19 19 19 17 15 13 11 10 9 7 5 6 6 6 6 6 7 8 8 9 10
8 15 18 16 18 14 18 15 17 16 13 11 11 13 10 5 7 7 8 10 13 16 19 19 19 19 17 15 13 11 10 8 7 6 7 6 6 6 6 7 7 8 9 10
11 12 15 20 17 14 15 18 19 20 17 15 12 7 11 8 11 10 10 8 14 17 20 22 22 19 17 15 13 11 10 8 7 8 8 8 7 6 7 7 8 9 10 10
6 9 9 15 12 15 14 17 17 18 12 9 9 11 8 7 11 13 14 12 13 17 19 20 20 19 17 16 13 11 10 9 9 9 9 7 8 8 9 9 9 9 10 10
8 7 8 14 11 10 15 14 16 12 10 10 9 8 10 13 13 14 14 13 12 14 16 19 21 19 16 15 13 12 11 10 10 9 9 8 8 9 9 9 9 9 9 9
6 9 7 6 8 13 2 1 12 13 12 10 7 8 10 11 12 13 12 12 11 12 15 17 17 16 15 15 14 12 11 11 10 10 9 9 9 9 8 8 9 9 9 9
5 8 8 8 13 13 8 5 7 11 12 9 8 9 10 7 10 8 2 3 4 7 11 15 15 16 15 14 14 12 12 12 11 11 10 10 9 8 9 9 9 8 8 8
6 6 10 8 17 20 13 9 8 2 9 10 4 8 8 4 9 7 6 5 7 9 11 13 15 15 14 14 14 14 14 13 13 11 10 9 8 8 9 9 9 8 7 8
9 9 14 14 12 11 9 9 7 9 3 7 7 7 6 9 5 3 6 7 7 9 12 14 14 13 13 12 13 14 15 15 14 11 9 8 8 9 9 9 8 8 8 8
11 9 10 11 11 13 9 7 10 5 6 5 9 9 10 11 6 6 7 9 10 11 13 14 12 12 11 10 11 14 14 14 12 10 8 6 6 9 9 7 8 7 6 6
6 3 5 3 2 6 4 3 6 7 9 12 10 12 11 12 10 9 10 10 10 11 10 10 9 8 7 6 7 11 12 11 10 7 8 7 6 8 8 7 6 6 7 6
3 1 4 2 6 2 4 5 7 8 11 13 14 14 11 12 8 7 8 8 8 7 7 5 4 5 6 5 7 8 7 3 7 7 6 6 7 7 8 6 7 6 6 5
5 1 4 6 3 5 3 8 11 11 10 10 10 11 11 11 10 10 9 8 7 6 5 3 1 2 1 0 3 3 5 5 5 3 3 6 6 7 6 3 4 4 6 4
4 4 6 4 5 4 5 12 13 10 10 6 4 6 8 10 10 9 8 7 5 5 4 3 2 2 3 3 4 2 1 1 1 3 5 4 5 5 6 2 5 15 10 11
Wind_Direction
205 214 209 186 211 262 195 219 195 199 162 208 202 153 161 165 175 166 167 178 186 188 170 171 182 191 195 191 183 187 183 178 218 221 242 247 264 270 279 290 278 278 275 260
185 221 212 230 198 223 233 211 210 135 197 219 160 175 166 176 178 182 175 177 187 180 178 186 191 194 193 176 176 172 182 185 210 220 255 283 292 286 302 276 275 291 297 288
200 202 152 186 195 205 206 216 205 216 183 213 173 185 192 192 188 186 203 193 190 190 187 189 194 199 194 174 169 162 175 192 215 214 187 210 238 229 259 300 310 1 301 293
221 139 181 197 193 214 196 222 249 195 191 209 205 234 192 194 203 200 193 199 195 189 191 185 187 188 186 166 159 147 149 144 141 179 171 1 308 308 357 302 327 303 296 305
184 181 186 194 192 206 90 140 163 186 212 160 189 258 107 190 208 208 206 194 201 193 189 187 183 168 163 159 152 144 138 138 141 138 345 294 312 341 335 323 319 307 297 305
153 171 195 173 139 159 130 126 134 192 197 222 228 219 263 188 231 218 202 204 196 195 192 188 179 156 165 161 154 145 147 149 138 139 101 26 359 337 317 338 302 309 299 306
163 176 148 153 119 143 180 173 178 203 202 243 89 238 259 288 194 235 205 203 193 195 196 190 176 175 171 170 161 153 159 162 175 184 124 213 274 281 275 305 322 316 319 326
186 174 173 185 178 180 202 204 241 211 236 230 140 241 243 340 297 218 234 205 197 194 193 190 179 181 177 173 167 166 175 173 182 178 187 219 241 277 282 288 318 305 318 315
205 196 149 184 160 194 173 214 302 306 259 270 236 191 267 210 230 216 223 219 196 192 190 189 182 182 178 175 172 177 179 187 193 208 211 236 253 259 313 291 283 286 284 303
196 211 187 155 157 165 235 184 197 218 259 254 180 255 241 181 230 217 219 211 192 191 193 190 186 184 181 178 172 181 187 195 203 222 245 260 266 245 275 283 284 285 286 282
222 236 161 167 208 210 182 206 230 305 317 298 249 190 117 323 162 206 212 203 195 192 196 194 189 185 184 180 176 186 196 204 213 224 255 262 254 260 269 282 280 276 275 278
219 209 219 211 135 279 221 214 198 224 184 229 307 301 113 180 175 215 217 196 198 198 196 196 186 187 184 183 183 192 203 216 226 244 246 251 246 252 268 277 282 283 276 278
183 223 216 189 188 179 222 217 227 226 247 270 269 272 122 170 220 239 235 201 198 198 195 191 188 187 187 186 185 199 208 226 234 219 243 234 244 247 265 275 282 288 289 287
198 227 219 218 222 217 209 223 225 234 233 241 217 273 283 298 273 251 246 241 209 204 196 194 194 187 188 184 184 196 212 232 226 243 253 245 242 253 269 281 286 291 295 294
212 227 226 231 250 240 228 214 219 228 241 259 286 317 293 302 295 296 282 251 217 206 203 198 196 186 185 181 183 194 212 214 238 246 248 250 246 261 266 277 287 292 291 295
209 232 214 230 227 229 235 236 212 225 234 247 262 268 301 292 280 276 268 256 231 217 211 205 196 186 185 181 184 195 209 217 223 236 249 256 258 264 266 274 281 289 291 295
197 192 209 218 195 212 229 202 205 202 215 233 242 292 324 302 293 286 283 267 246 226 211 201 196 186 182 183 183 200 207 213 223 231 244 250 251 256 264 282 285 286 299 299
214 210 222 228 169 218 192 259 227 227 219 222 270 296 301 298 298 291 271 259 256 227 202 197 189 179 182 185 189 201 208 210 220 228 235 243 250 257 260 267 272 281 297 299
246 231 220 231 222 237 149 184 190 204 218 232 262 290 285 302 292 262 240 208 205 189 189 185 181 178 184 185 200 201 209 214 218 231 238 244 249 258 261 264 270 291 292 288
206 243 253 209 251 248 257 174 180 168 249 258 227 286 275 267 261 119 129 141 148 159 167 168 178 182 182 199 202 207 211 214 222 230 243 248 257 259 271 271 278 289 272 267
203 226 229 234 244 255 109 129 158 217 295 6 314 286 250 230 291 100 140 150 150 158 163 175 179 189 198 203 214 216 218 218 222 229 237 242 255 254 249 268 272 266 259 291
222 220 222 243 258 235 132 142 235 11 341 352 312 288 243 228 210 178 169 162 164 168 174 182 187 200 211 214 220 227 224 224 215 231 233 239 254 264 278 213 246 266 261 262
232 322 294 275 35 86 85 344 321 312 293 292 298 292 271 248 225 186 167 161 159 165 174 183 206 217 231 230 235 240 240 235 226 199 221 226 240 257 270 257 254 246 229 268
157 323 267 255 132 44 316 318 323 319 293 285 272 262 256 236 204 172 147 143 145 148 162 175 206 247 265 251 236 239 241 172 210 215 226 240 248 253 252 250 239 257 307 305
16 160 244 250 236 311 132 26 351 327 311 292 271 251 221 196 174 160 138 136 126 113 93 70 7 285 278 58 153 177 187 205 223 232 240 257 253 237 261 230 346 278 40 6
207 259 251 325 50 343 350 343 336 325 323 306 252 195 174 171 158 149 147 123 114 102 94 88 87 119 125 126 125 111 112 186 247 248 238 260 282 267 248 225 119 48 79 79